Location: Waning Moon II Observatory
(30.3730°N, 89.7620°W)
Time: 23:41:32
(UTC-05:00)

Daily predictions for brighter satellites

Satellite Brightness Start Highest point End
(mag) Time Altitude Azimuth Time Altitude Azimuth Time Altitude Azimuth
FengYun 1-2 T 4.3 20:09:01 10° SSE 20:14:29 67° ENE 20:19:55 10° N
Meteor 1-12 Rocket 4.4 20:09:03 10° N 20:14:55 88° W 20:20:39 10° S
Delta 168 3.9 20:13:19 10° SW 20:16:01 22° SSE 20:19:20 10° ESE
CZ-3C R/B 3.8 19:54:19 10° WSW 20:17:13 31° S 20:22:01 10° SE
Cosmos 1242 Rocket 3.5 20:18:13 10° SSW 20:21:51 55° W 20:25:32 10° N
Cosmos 2098 Rocket 3.2 20:21:44 10° N 20:25:09 44° E 20:29:22 10° SSE
Cosmos 2333 Rocket 3.2 20:20:34 10° SW 20:26:04 54° WNW 20:31:36 10° N
Cosmos 2251 Rocket 3.5 20:22:04 10° S 20:27:17 66° ESE 20:32:35 10° NNE
Milstar 3 Cent rocket 2.8 20:25:05 10° W 20:34:29 69° SSW 20:39:27 11° ESE
deb Chang Zheng 4 4.2 20:31:26 10° NNE 20:35:30 36° E 20:39:30 10° SSE
CZ-2C R/B 2.3 20:36:24 14° ESE 20:37:22 17° ENE 20:39:01 10° NNE
H-2A R/B 3.0 20:34:20 10° SSE 20:38:09 54° ENE 20:42:01 10° N
Cosmos 1844 Rocket 3.3 20:33:25 10° NNW 20:38:57 57° WSW 20:44:25 10° S
Cosmos 1844 3.9 20:35:20 10° NNW 20:41:06 78° WSW 20:46:53 10° SSE
ERS-1 Rocket 3.7 20:36:55 10° SE 20:41:20 35° ENE 20:45:53 10° N
BREEZE-M DEB (TANK) 3.5 20:32:05 10° SW 20:42:12 86° SE 20:45:15 10° NE
FENGYUN 3A 3.7 20:38:17 10° SSE 20:43:35 69° ENE 20:48:56 10° N
Cosmos 1975 4.0 20:42:51 10° NNW 20:46:40 43° W 20:50:26 10° SSW
Cosmos 1606 Rocket 3.7 20:44:51 10° N 20:49:11 53° E 20:53:08 12° SSE
H-2A R/B 2.9 20:48:21 16° SE 20:51:07 33° ENE 20:54:58 10° N
Hubble Space Telescope 2.5 20:50:34 10° WSW 20:53:43 21° SSW 20:56:04 14° SSE
ATLAS CENTAUR R/B 4.2 20:55:23 10° WSW 20:59:32 27° NW 21:03:48 10° N
Cosmos 2237 Rocket 4.4 20:57:57 10° WSW 21:02:41 28° WNW 21:07:28 10° N
Resurs 01 Rocket 4.4 21:00:22 10° SW 21:02:42 14° W 21:05:02 10° WNW
ATLAS 3B CENTAUR R/B 4.1 21:01:46 10° SW 21:05:15 19° S 21:09:25 14° SSE
SJ-11-01 4.4 21:02:11 18° SSE 21:05:28 56° ENE 21:10:02 10° N
GEOS 3 Rocket 3.7 21:02:57 17° SSE 21:07:07 84° WSW 21:12:23 10° NNW
Atlas Centaur 2 3.0 21:02:01 10° WSW 21:09:19 61° SSE 21:17:40 10° E
Fermi 4.4 21:12:13 10° WSW 21:15:57 35° S 21:16:42 32° SSE
Cosmos 2278 Rocket 2.8 21:10:30 10° NNW 21:16:03 56° WSW 21:21:05 13° S
Cosmos 494 Rocket 4.4 21:11:35 10° SSW 21:16:38 62° WNW 21:21:42 10° N
PSLV R/B 4.2 21:14:48 10° WSW 21:18:14 50° NNW 21:21:43 10° NE
Aureole 2 Rocket 2.8 21:14:10 10° SSW 21:18:19 82° WNW 21:22:07 10° NNE
USA 186 3.7 21:15:48 10° SSW 21:18:20 24° W 21:20:45 10° NW
COSMOS 2455 3.2 21:13:43 10° S 21:19:15 41° ESE 21:24:49 10° NE
Meteor 1-15 Rocket 4.4 21:13:49 10° N 21:19:16 53° E 21:22:12 27° SE
Cosmos 2228 3.3 21:15:45 10° N 21:20:01 48° E 21:21:31 33° SE
Cosmos 1939 Rocket 3.1 21:18:35 32° SE 21:20:13 54° ENE 21:24:16 10° N
ISS -1.2 21:18:39 10° SSW 21:19:19 15° SSW 21:19:19 15° SSW
SPOT 5 3.1 21:26:56 35° ESE 21:28:06 43° ENE 21:32:14 10° N
SL-16 R/B 3.7 21:24:24 10° SW 21:29:38 38° WNW 21:34:53 10° N
Cosmos 1666 2.6 21:30:12 10° N 21:34:06 70° E 21:34:49 54° SE
CZ-4 SHROUD 3.6 21:34:31 50° NE 21:34:31 50° NE 21:37:19 10° N
Gbstr 26 Del rocket 4.5 21:28:49 10° NW 21:36:24 79° NE 21:40:41 32° SE
Tsikada Rocket 4.0 21:33:55 20° S 21:38:29 72° E 21:44:52 10° N
OTV 4 2.5 21:38:19 10° W 21:40:00 19° SW 21:40:00 19° SW
Geosat 4.5 21:37:43 10° NE 21:42:04 38° E 21:42:04 38° E
Cosmos 1331 Rocket 4.3 21:39:42 10° NNW 21:44:50 63° WSW 21:47:14 31° S
Cosmos 1513 Rocket 4.4 21:38:52 10° N 21:45:10 87° E 21:48:21 31° S
DEBRIS 4.0 21:42:19 10° NNW 21:45:15 21° NNE 21:45:19 21° NNE
MetOp-B 4.2 21:49:01 46° SE 21:50:17 59° ENE 21:55:33 10° N
SeaSat 1 2.4 21:50:09 52° SE 21:51:16 70° ENE 21:56:11 10° NNW
Cosmos 1302 Rocket 3.9 21:48:57 10° NNW 21:54:12 87° ENE 21:55:30 53° SSE
Cosmos 2285 Rocket 4.2 21:48:46 10° NNW 21:55:03 68° WSW 21:58:06 32° S
Terra 4.0 21:56:20 13° ENE 21:56:20 13° ENE 21:57:53 10° NE
Cosmos 1603 4.1 21:52:48 10° SSW 21:58:20 61° WNW 22:03:54 10° NNE
CZ-4B R/B 3.5 21:56:24 10° NNE 22:01:31 84° WNW 22:03:35 38° SSW
APEX 3.9 22:02:24 10° NNW 22:06:50 78° WSW 22:07:38 63° S
Timation 1 Rocket 4.2 22:02:06 10° NNW 22:08:08 81° ENE 22:09:16 60° SE
Cosmos 1825 Rocket 4.3 22:10:25 43° NE 22:10:25 43° NE 22:13:38 10° NNE
Cosmos 1461 3.5 22:07:43 10° NNW 22:11:08 49° NNE 22:11:08 49° NNE
Delta 168 4.4 22:08:26 10° WSW 22:10:31 29° SW 22:10:31 29° SW
ATLAS 3B R/B 2.8 22:16:52 36° S 22:20:13 69° ESE 22:27:48 10° NE
Cosmos 1812 Rocket 3.8 22:15:54 10° N 22:19:55 67° WNW 22:19:55 67° WNW
Envisat 4.0 22:19:51 32° SW 22:21:18 39° W 22:26:03 10° NNW
USA 245 4.3 22:20:33 65° SSE 22:21:33 88° E 22:27:15 10° NNW
YAOGAN 6 4.0 22:24:55 38° NNW 22:24:55 38° NNW 22:27:22 10° NNW
Cosmos 1943 3.0 22:23:34 79° SSE 22:23:53 85° ESE 22:29:34 10° NNE
Cosmos 407 Rocket 4.3 22:27:24 39° NE 22:27:24 39° NE 22:30:51 10° NNE
Cosmos 1634 Rocket 3.9 22:21:42 10° N 22:27:49 64° E 22:27:54 64° E
OAO 3 Copernicus 4.5 22:25:02 10° WNW 22:29:35 69° NW 22:29:35 69° NW
USA 234 3.3 22:30:35 58° E 22:31:44 70° NE 22:38:17 10° NW
USA 81 4.1 22:33:36 10° N 22:38:24 74° NNW 22:38:24 74° NNW
Cosmos 489 Rocket 4.4 22:42:47 81° ENE 22:42:47 81° ENE 22:49:00 10° NNE
Cosmos 1943 Rocket 4.2 22:39:35 10° NNE 22:42:15 15° NE 22:42:15 15° NE
Cosmos 2279 Rocket 4.3 22:47:25 10° N 22:52:42 53° NE 22:52:42 53° NE
H-2A R/B 2.9 22:59:58 42° N 22:59:58 42° N 23:03:19 10° N
Atlas Centaur 2 2.9 22:51:04 10° W 22:59:15 89° S 23:00:56 63° E
ARGOS 4.2 23:10:54 38° W 23:10:54 38° W 23:15:21 10° NNW
Cosmos 2369 Rocket 2.9 23:08:57 10° NNW 23:13:08 51° NNW 23:13:08 51° NNW
Lacrosse 4 Rocket 4.2 23:31:20 16° NNW 23:31:20 16° NNW 23:32:27 10° N
Terra 3.7 23:35:13 27° NW 23:35:13 27° NW 23:37:32 10° NNW
